Location: Bathsheba
(13.2167°N, 59.5167°W)
Time: 23:55:07
(UTC+00:00)

CSL-04 Debris - Pass Details

Date: 18 September 2020
Orbit: 827 x 848 km, 98.9° (Epoch: 20 October)

Event Time Altitude Azimuth Distance (km) Brightness Sun altitude
Rises 23:11:24 0° 165° (SSE) 3,371 7.1 -19.0°
Reaches altitude 10° 23:13:45 10° 164° (SSE) 2,435 6.4 -19.6°
Maximum altitude 23:19:09 82° 77° (ENE) 840 4.0 -20.9°
Drops below altitude 10° 23:24:32 10° 350° (N) 2,426 6.8 -22.2°
Sets 23:26:52 0° 349° (N) 3,358 7.6 -22.7°
